Regional Weather Roundup
Issued by NWS

Home | Current Version | Previous Version | Text Only | Print | Product List | Glossary On
Versions: 1 2 3 4 5 6 7 8 9 10 11 12 13 14 15 16 17 18 19 20 21 22 23 24 25 26 27 28 29 30 31 32 33 34 35 36 37 38 39 40 41 42 43 44 45 46 47 48 49 50
000
ASUS43 KMKX 012000
RWRWI

WISCONSIN REGIONAL WEATHER ROUNDUP
NATIONAL WEATHER SERVICE MILWAUKEE/SULLIVAN WI
300 PM CDT TUE SEP 01 2015

NOTE: "FAIR" INDICATES FEW OR NO CLOUDS BELOW 12,000 FEET WITH NO
SIGNIFICANT WEATHER AND/OR OBSTRUCTIONS TO VISIBILITY.

WIZ001-002-006>008-014>016-023>028-012100-
NORTHWEST WISCONSIN

CITY           SKY/WX    TMP DP  RH WIND       PRES   REMARKS
SUPERIOR ARPT  MOSUNNY   82  71  69 S3        29.88S HX  87
ASHLAND        PTSUNNY   85  74  69 SW8       29.89F HX  92
HAYWARD        PTSUNNY   82  69  64 S12       29.92S HX  85
SIREN          PTSUNNY   85  68  56 SW9       29.91R HX  89
CUMBERLAND     PTSUNNY   81  68  65 S8        29.93S HX  83
RICE LAKE      PTSUNNY   83  70  64 S7        29.94S HX  87
CHETEK         PTSUNNY  N/A N/A N/A SW6       29.92S
LADYSMITH      PTSUNNY   83  69  62 S6        29.95F HX  86
EAU CLAIRE     MOSUNNY   86  71  60 S7        29.91S HX  91
MENOMONIE      PTSUNNY   87  71  59 SE7       29.91S HX  92
NEW RICHMOND   CLOUDY    83  69  63 S6        29.92R HX  86
OSCEOLA        PTSUNNY   85  69  60 S7        29.93S HX  89
$$

WIZ003>005-009-010-017-018-012100-
NORTH CENTRAL WISCONSIN

CITY           SKY/WX    TMP DP  RH WIND       PRES   REMARKS
MANITOWISH WTR PTSUNNY   79  69  71 SW6       29.96S HX  81
ARBOR VITAE    PTSUNNY   80  67  64 W7        29.96S HX  82
WOODRUFF       PTSUNNY   80  67  64 W7        29.96S HX  82
RHINELANDER    PTSUNNY   82  67  60 SW10      29.98R HX  84
EAGLE RIVER    PTSUNNY   81  64  56 SW13      29.96S HX  82
LAND O LAKES   PTSUNNY   80  65  60 SW7       29.97R HX  82
PHILLIPS       PTSUNNY   80  69  67 SW8       29.96R HX  83
TOMAHAWK       PTSUNNY   81  66  59 SW6       29.97S HX  83
MEDFORD        PTSUNNY   80  70  69 SW6       29.96S HX  84
MERRILL        PTSUNNY   84  69  62 W10       29.96S HX  87
$$

WIZ029-030-035-036-043>047-012100-
CENTRAL WISCONSIN

CITY           SKY/WX    TMP DP  RH WIND       PRES   REMARKS
WAUSAU         MOSUNNY   84  68  58 S7        29.94F HX  87
MOSINEE        NOT AVBL
MARSHFIELD     PTSUNNY   87  68  52 SW10      29.95F HX  90
STEVENS POINT  MOSUNNY   85  66  52 SW13      29.96F HX  87
WAUPACA        MOSUNNY   89  68  48 SW12      29.95F HX  93
WAUTOMA        NOT AVBL
WISC RAPIDS    MOSUNNY   88  67  49 SW10      29.96F HX  91
CAMP DOUGLAS   NOT AVBL
$$

WIZ011>013-019>022-031-037>040-048>050-012100-
NORTHEAST WISCONSIN

CITY           SKY/WX    TMP DP  RH WIND       PRES   REMARKS
ANTIGO         PTSUNNY   83  67  58 SW14      29.97F HX  85
SHAWANO        MOSUNNY   89  67  47 SW12      29.94F HX  91
OCONTO         PTSUNNY   85  75  70 S9        29.93S HX  93
STURGEON BAY   PTSUNNY   79  70  73 S13G20    29.97F HX  81
GREEN BAY      MOSUNNY   87  73  62 SW9       29.94F HX  94
MANITOWOC      NOT AVBL
APPLETON       MOSUNNY   86  66  51 S12       29.94F HX  88
CLINTONVILLE   MOSUNNY   88  66  48 SW10G16   29.94F HX  90
OSHKOSH        MOSUNNY   85  69  58 SW13      29.95F HX  89
$$

WIZ032>034-041-042-053>061-012100-
SOUTHWEST WISCONSIN

CITY           SKY/WX    TMP DP  RH WIND       PRES   REMARKS
LA CROSSE      SUNNY     89  73  59 S13       29.91F HX  97
SPARTA         MOSUNNY   89  68  50 S10       29.94S HX  92
VIROQUA          N/A     86  72  62 S9        29.97F HX  92
BOSCOBEL       SUNNY     91  72  53 S9G17     29.95S HX  98
PRAIRIE DU CHI MOSUNNY   87  70  56 SE8       29.95S HX  92
PLATTEVILLE    SUNNY     86  74  68 S14       29.99S HX  93
$$

WIZ056-057-062-063-064-067-068-012100-
SOUTH CENTRAL WISCONSIN

CITY           SKY/WX    TMP DP  RH WIND       PRES   REMARKS
REEDSBURG      SUNNY     88  72  60 SW13      29.96S HX  95
BARABOO/DELLS  PTSUNNY   88  68  50 S13       29.97S HX  92
LONE ROCK      NOT AVBL
MINERAL POINT  SUNNY     88  72  58 S9        29.99F HX  94
MADISON        PTSUNNY   87  69  54 SW9G17    29.96F HX  91
MIDDLETON      SUNNY     89  68  49 SW14      29.98F HX  93
WATERTOWN      SUNNY     88  70  54 S12G18    29.98S HX  93
MONROE         MOSUNNY   86  72  62 S15       30.00S HX  92
JANESVILLE     MOSUNNY   90  70  51 S16       29.98F HX  95
$$

WIZ051-052-058>065-066-070>072-012100-
SOUTHEAST WISCONSIN

CITY           SKY/WX    TMP DP  RH WIND       PRES   REMARKS
MILWAUKEE      PTSUNNY   88  68  51 SW14      29.97F HX  91
WAUKESHA       MOSUNNY   84  66  54 SW14      30.00F HX  86
MILWAUKEE/TIMM MOSUNNY   88  64  45 SW9       29.99F HX  89
RACINE         MOSUNNY   84  70  62 S15       30.00F HX  88
BURLINGTON     MOSUNNY   86  68  54 SW9G16    29.99F HX  89
KENOSHA        MOSUNNY   89  70  53 SW13      29.99F HX  94
FOND DU LAC    MOSUNNY   87  69  54 SW10      29.96F HX  91
SHEBOYGAN      SUNNY     88  68  51 SW10      29.96F HX  91
WEST BEND      MOSUNNY   86  64  48 SW12      29.98F HX  87
JUNEAU         MOSUNNY   85  69  59 S14       29.99F HX  88
$$

LSZ147-162-012100-
LAKE SUPERIOR

STATION/POSITION TIME  TEMP    WIND        PRES    WAVE
                       AIR SEA DIR/SP/G            HT/PER
                 (UTC) (F)     (DEG/KT/KT) (MB)    (FT/S)
W MID LAKE BUOY  1850   60 55  220/  6/  6 1012.1S   0
DEVILS ISLAND    1900   68     230/  7/  8 1012.1F
PORT WING        1940   73      20/  2/  4 1012.5S
SAXON HARBOR     1900   73        CALM     1012.2R
$$

LMZ867-665-643>646-012100-
LAKE MICHIGAN

STATION/POSITION TIME  TEMP    WIND        PRES    WAVE
                       AIR SEA DIR/SP/G            HT/PER
                 (UTC) (F)     (DEG/KT/KT) (MB)    (FT/S)
CHAMBERS ISLAND  1900   81     170/  5/  8 1013.9S
S GREEN BAY BUOY 1930   75 67  220/  4/  4 1015.3F
N MID LAKE BUOY  1850   67 65  190/ 12/ 12 1014.1F   1/ 3
NORTHPORT PIER   1900   74     150/  7/ 13 1014.2S
SISTER BAY       1919   81     180/ 14/ 16   N/A
ALGOMA LAKESHORE 1814           CALM  /  3   N/A
KEWAUNEE LAKESHO 1900   55     170/ 15/ 17 1013.9F
SHEBOYGAN LAKESH 1900   69     180/ 21/ 21 1015.1F
PORT WASHINGTON  1940   64     170/  6/  8 1015.6F
ATWATER BUOY     1900   61 50  180/  8/ 10 1016.9F
MILWAUKEE LAKESH 1910   67     150/ 14/ 15   N/A
S MID LAKE BUOY  1850   72 70  170/ 10/ 12 1016.1F   1/ 3
KENOSHA   LAKESH 1900   71     180/ 13/ 18 1015.6F
$$

TC  - TEMPERATURE IN CELSIUS
VSB - VISIBILITY IN STATUTE MILES
WCI - WIND CHILL INDEX
HX  - HEAT INDEX




USA.gov is the U.S. government's official web portal to all federal, state and local government web resources and services.